Time,TemperatureF,DewpointF,PressureIn,WindDirection,WindDirectionDegrees,WindSpeedMPH,WindSpeedGustMPH,Humidity,HourlyPrecipIn,Conditions,Clouds,dailyrainin,SoftwareType,DateUTC
2013-01-21 00:23:00,36.3,29.5,30.08,NNW,344,0.0,0.0,76,0.00,,---,0.00,VWS V13.01,2013-01-21 05:23:00,
2013-01-21 00:53:00,35.6,29.1,30.08,NNW,344,0.0,1.0,77,0.00,,---,0.00,VWS V13.01,2013-01-21 05:53:00,
2013-01-21 01:23:00,34.4,28.9,30.08,NNW,344,0.0,2.0,80,0.00,,---,0.00,VWS V13.01,2013-01-21 06:23:00,
2013-01-21 01:53:00,33.7,28.2,30.08,NNW,344,0.0,1.0,80,0.00,,---,0.00,VWS V13.01,2013-01-21 06:53:00,
2013-01-21 02:23:00,32.8,27.6,30.08,NNW,344,0.0,1.0,81,0.00,,---,0.00,VWS V13.01,2013-01-21 07:23:00,
2013-01-21 02:53:00,32.1,27.2,30.08,NNW,344,0.0,1.0,82,0.00,,---,0.00,VWS V13.01,2013-01-21 07:53:00,
2013-01-21 03:23:00,31.6,26.8,30.08,NNW,344,0.0,0.0,82,0.00,,---,0.00,VWS V13.01,2013-01-21 08:23:00,
2013-01-21 03:53:00,31.1,26.5,30.08,NNW,344,0.0,0.0,83,0.00,,---,0.00,VWS V13.01,2013-01-21 08:53:00,
2013-01-21 04:23:00,30.5,26.0,30.07,NNW,344,0.0,1.0,83,0.00,,---,0.00,VWS V13.01,2013-01-21 09:23:00,
2013-01-21 04:53:00,30.1,25.9,30.07,NNW,344,0.0,1.0,84,0.00,,---,0.00,VWS V13.01,2013-01-21 09:53:00,
2013-01-21 05:23:00,29.9,25.7,30.06,NNW,344,0.0,2.0,84,0.00,,---,0.00,VWS V13.01,2013-01-21 10:23:00,
2013-01-21 05:53:00,29.3,25.1,30.06,NNW,344,0.0,1.0,84,0.00,,---,0.00,VWS V13.01,2013-01-21 10:53:00,
2013-01-21 06:23:00,29.1,25.2,30.07,NNW,344,0.0,2.0,85,0.00,,---,0.00,VWS V13.01,2013-01-21 11:23:00,
2013-01-21 06:53:00,28.9,25.0,30.07,NNW,344,0.0,1.0,85,0.00,,---,0.00,VWS V13.01,2013-01-21 11:53:00,
2013-01-21 07:23:00,28.5,24.6,30.07,NNW,344,0.0,0.0,85,0.00,,---,0.00,VWS V13.01,2013-01-21 12:23:00,
2013-01-21 07:53:00,28.5,24.9,30.07,NNW,344,0.0,1.0,86,0.00,,---,0.00,VWS V13.01,2013-01-21 12:53:00,
2013-01-21 08:23:00,28.9,25.2,30.07,NNW,344,0.0,1.0,86,0.00,,---,0.00,VWS V13.01,2013-01-21 13:23:00,
2013-01-21 08:53:00,31.5,28.1,30.08,NNW,344,0.0,2.0,87,0.00,,---,0.00,VWS V13.01,2013-01-21 13:53:00,
2013-01-21 09:23:00,36.5,32.4,30.09,NNW,344,0.0,0.0,85,0.00,,---,0.00,VWS V13.01,2013-01-21 14:23:00,
2013-01-21 09:53:00,42.8,32.6,30.08,NNW,343,0.0,2.0,67,0.00,,---,0.00,VWS V13.01,2013-01-21 14:53:00,
2013-01-21 10:23:00,50.8,29.1,30.08,SW,224,5.0,7.0,43,0.00,,---,0.00,VWS V13.01,2013-01-21 15:23:00,
2013-01-21 10:53:00,52.6,27.7,30.08,South,184,2.0,6.0,38,0.00,,---,0.00,VWS V13.01,2013-01-21 15:53:00,
2013-01-21 11:23:00,55.1,30.0,30.07,SW,224,0.0,5.0,38,0.00,,---,0.00,VWS V13.01,2013-01-21 16:23:00,
2013-01-21 11:53:00,57.5,28.6,30.05,SW,224,1.0,4.0,33,0.00,,---,0.00,VWS V13.01,2013-01-21 16:53:00,
2013-01-21 12:23:00,59.0,28.4,30.02,North,9,3.0,18.0,31,0.00,,---,0.00,VWS V13.01,2013-01-21 17:23:00,
2013-01-21 12:53:00,59.0,29.2,30.00,WNW,303,2.0,18.0,32,0.00,,---,0.00,VWS V13.01,2013-01-21 17:53:00,
2013-01-21 13:23:00,61.1,27.8,29.99,North,6,3.0,12.0,28,0.00,,---,0.00,VWS V13.01,2013-01-21 18:23:00,
2013-01-21 13:53:00,61.5,29.0,29.97,North,353,4.0,13.0,29,0.00,,---,0.00,VWS V13.01,2013-01-21 18:53:00,
2013-01-21 14:23:00,61.9,30.1,29.97,NNW,338,2.0,12.0,30,0.00,,---,0.00,VWS V13.01,2013-01-21 19:23:00,
2013-01-21 14:53:00,61.4,28.0,29.97,North,357,5.0,15.0,28,0.00,,---,0.00,VWS V13.01,2013-01-21 19:53:00,
2013-01-21 15:23:00,60.9,27.6,29.96,West,264,1.0,12.0,28,0.00,,---,0.00,VWS V13.01,2013-01-21 20:23:00,
2013-01-21 15:53:00,60.7,26.5,29.97,North,356,9.0,14.0,27,0.00,,---,0.00,VWS V13.01,2013-01-21 20:53:00,
2013-01-21 16:23:00,60.2,25.2,29.96,North,10,7.0,11.0,26,0.00,,---,0.00,VWS V13.01,2013-01-21 21:23:00,
2013-01-21 16:53:00,58.8,22.1,29.98,NNE,13,14.0,14.0,24,0.00,,---,0.00,VWS V13.01,2013-01-21 21:53:00,
2013-01-21 17:23:00,56.7,22.2,29.98,NNW,347,5.0,10.0,26,0.00,,---,0.00,VWS V13.01,2013-01-21 22:23:00,
2013-01-21 17:53:00,54.2,19.2,29.99,NNW,346,4.0,13.0,25,0.00,,---,0.00,VWS V13.01,2013-01-21 22:53:00,
2013-01-21 18:23:00,52.5,15.8,30.00,NW,317,3.0,18.0,23,0.00,,---,0.00,VWS V13.01,2013-01-21 23:23:00,
2013-01-21 18:53:00,50.4,14.0,30.02,NNW,336,6.0,13.0,23,0.00,,---,0.00,VWS V13.01,2013-01-21 23:53:00,
2013-01-21 19:23:00,48.5,13.4,30.02,NNW,328,0.0,16.0,24,0.00,,---,0.00,VWS V13.01,2013-01-22 00:23:00,
2013-01-21 19:53:00,47.1,14.9,30.03,North,2,1.0,10.0,27,0.00,,---,0.00,VWS V13.01,2013-01-22 00:53:00,
2013-01-21 20:23:00,46.0,15.5,30.03,WNW,300,1.0,9.0,29,0.00,,---,0.00,VWS V13.01,2013-01-22 01:23:00,
2013-01-21 20:53:00,44.9,15.4,30.04,NW,311,0.0,5.0,30,0.00,,---,0.00,VWS V13.01,2013-01-22 01:53:00,
2013-01-21 21:23:00,43.7,15.8,30.05,NW,304,0.0,6.0,32,0.00,,---,0.00,VWS V13.01,2013-01-22 02:23:00,
2013-01-21 21:53:00,43.4,15.5,30.04,NNW,328,1.0,9.0,32,0.00,,---,0.00,VWS V13.01,2013-01-22 02:53:00,
2013-01-21 22:23:00,42.8,15.0,30.04,NW,306,0.0,6.0,32,0.00,,---,0.00,VWS V13.01,2013-01-22 03:23:00,
2013-01-21 22:53:00,41.7,16.1,30.04,NW,311,0.0,3.0,35,0.00,,---,0.00,VWS V13.01,2013-01-22 03:53:00,
2013-01-21 23:23:00,41.0,15.5,30.04,WNW,284,3.0,6.0,35,0.00,,---,0.00,VWS V13.01,2013-01-22 04:23:00,
2013-01-21 23:53:00,40.6,15.8,30.04,NW,323,3.0,5.0,36,0.00,,---,0.00,VWS V13.01,2013-01-22 04:53:00,